Location: Unspecified
(51.5147°N, 7.4673°E)
Time: 01:39:18
(UTC+01:00)

A-11 Canister half - Pass Details

Date: 16 February 2026
Orbit: 1512 x 1687 km, 47.2° (Epoch: 8 March)

Event Time Altitude Azimuth Distance (km) Brightness Sun altitude
Rises 02:44:18 0° 280° (W) 4,892 - -44.0°
Reaches altitude 10° 02:47:33 10° 276° (W) 3,883 - -43.6°
Maximum altitude 02:57:05 56° 202° (SSW) 1,849 - -42.6°
Exits shadow 03:03:53 20° 133° (SE) 3,037 10.5 -41.8°
Drops below altitude 10° 03:06:16 10° 128° (SE) 3,741 11.1 -41.5°
Sets 03:09:20 0° 124° (SE) 4,703 11.7 -41.1°
